Content
SEND FEEDBACK

Daily
Averages
Monthly
Summary
United States of America

SOUTH HAVEN, TEXAS


Home > North America > United States > Texas
Elevation: 2561 feet     Latitude: 32 13N     Longitude: 101 31W

WEATHER
 
SELECT A DAY
Number of Records: 291,422;   Date Range: 3/24/03 - 12/27/14
 
SHARE

PRINT THIS DATA

[ ← Previous Day ]
WEATHER ALMANAC - JANUARY 31, 2013
[ Next Day → ]
[ °C ]   °F
Weather ElementAverageHighLow
Temperature46.6 °F64.4 °F (2:55 pm)32 °F (12:35 am)
Dewpoint16.8 °F21.2 °F (11:55 am)8.6 °F (12:35 am)
Humidity32.8 %51 % (6:15 am)16 % (3:55 pm)
Barometer30.19 in30.26 in (10:35 pm)30.15 in (4:35 am)
Wind Speed8 mph23 mph (11:15 am)
Wind Gust29.9 mph (10:55 am)
Weather ElementAverage
Visibility9.7 mi
Wind DirectionSSE (158.5 °)

Weather ElementTotal
Precipitation---
Heating Degree Days16.8 (Base 65)
Averaged from 71 records on January 31, 2013
WEATHER CONDITIONS BREAKOUT
WIND DIRECTION BREAKOUT
WEATHER BY HOUR - JANUARY 31, 2013
[ °C ]   °F
Local TimeTemperatureDewpointHumidityBarometerVisibilityWind DirectionWind SpeedGust SpeedPrecipitationEventsConditions
12:35 AM32.0 °F8.6 °F38 %30.16 in10.0 miESE (120°)4.6 mphClear
12:55 AM32.0 °F8.6 °F38 %30.16 in10.0 miESE (120°)5.8 mphClear
1:15 AM32.0 °F8.6 °F38 %30.16 in10.0 miSE (130°)8.1 mphClear
1:35 AM32.0 °F8.6 °F38 %30.16 in10.0 miESE (120°)8.1 mphClear
1:55 AM33.8 °F8.6 °F35 %30.16 in10.0 miSE (140°)8.1 mphClear
2:15 AM32.0 °F8.6 °F38 %30.17 in10.0 miSE (140°)6.9 mphClear
2:35 AM32.0 °F8.6 °F38 %30.17 in10.0 miSSE (150°)8.1 mphClear
2:55 AM33.8 °F10.4 °F38 %30.17 in10.0 miSouth (170°)8.1 mphClear
3:15 AM33.8 °F10.4 °F38 %30.17 in10.0 miSSE (150°)6.9 mphClear
3:35 AM32.0 °F10.4 °F41 %30.17 in10.0 miSSE (160°)6.9 mphClear
3:55 AM32.0 °F10.4 °F41 %30.16 in10.0 miSSE (160°)6.9 mphClear
4:15 AM32.0 °F14.0 °F48 %30.16 in10.0 miSSE (160°)6.9 mphClear
4:35 AM32.0 °F12.2 °F44 %30.15 in10.0 miCalmClear
4:55 AM32.0 °F14.0 °F48 %30.16 in10.0 miCalmClear
5:15 AM32.0 °F14.0 °F48 %30.16 in10.0 miESE (110°)4.6 mphClear
5:35 AM32.0 °F14.0 °F48 %30.15 in10.0 miSSE (150°)8.1 mphClear
5:55 AM32.0 °F14.0 °F48 %30.16 in10.0 miSSE (160°)6.9 mphClear
6:15 AM32.0 °F15.8 °F51 %30.16 in10.0 miSE (140°)4.6 mphClear
6:35 AM32.0 °F15.8 °F51 %30.16 in10.0 miSE (130°)9.2 mphClear
6:55 AM32.0 °F14.0 °F48 %30.16 in10.0 miESE (120°)4.6 mphClear
7:15 AM32.0 °F14.0 °F48 %30.17 in10.0 miSE (130°)8.1 mphClear
7:35 AM32.0 °F14.0 °F48 %30.18 in10.0 miSSE (150°)8.1 mphClear
7:55 AM32.0 °F14.0 °F48 %30.19 in10.0 miESE (120°)5.8 mphClear
8:15 AM32.0 °F15.8 °F51 %30.19 in10.0 miSE (140°)8.1 mphClear
8:35 AM33.8 °F14.0 °F44 %30.19 in10.0 miSSE (160°)5.8 mphClear
8:55 AM37.4 °F15.8 °F41 %30.20 in10.0 miSSE (160°)5.8 mphClear
9:15 AM41.0 °F14.0 °F33 %30.21 in10.0 miSouth (170°)8.1 mphClear
9:35 AM42.8 °F15.8 °F34 %30.22 in10.0 miSouth (170°)8.1 mphClear
9:55 AM46.4 °F17.6 °F32 %30.23 in10.0 miSouth (190°)10.4 mphClear
10:15 AM53.6 °F17.6 °F24 %30.23 in10.0 miSW (220°)13.8 mphClear
10:35 AM55.4 °F19.4 °F25 %30.23 in10.0 miWSW (240°)16.1 mphClear
10:55 AM59.0 °F19.4 °F22 %30.23 in10.0 miWSW (240°)21.9 mph29.9 mphClear
11:15 AM59.0 °F19.4 °F22 %30.23 in10.0 miWest (260°)23.0 mph28.8 mphClear
11:35 AM59.0 °F19.4 °F22 %30.22 in10.0 miWest (270°)19.6 mph29.9 mphClear
11:55 AM60.8 °F21.2 °F22 %30.21 in10.0 miWest (260°)21.9 mph27.6 mphClear
12:15 PM60.8 °F21.2 °F22 %30.21 in10.0 miWest (260°)21.9 mph28.8 mphClear
12:35 PM60.8 °F19.4 °F20 %30.20 in7.0 miWest (270°)21.9 mph26.5 mphClear
12:55 PM62.6 °F21.2 °F20 %30.19 in7.0 miWest (270°)15.0 mph28.8 mphScattered Clouds
1:15 PM62.6 °F21.2 °F20 %30.18 in7.0 miWNW (290°)19.6 mph24.2 mphScattered Clouds
1:35 PM62.6 °F21.2 °F20 %30.17 in7.0 miWSW (250°)13.8 mph21.9 mphScattered Clouds
1:55 PM62.6 °F21.2 °F20 %30.16 in7.0 miSW (230°)12.7 mph21.9 mphScattered Clouds
2:15 PM62.6 °F21.2 °F20 %30.15 in7.0 miWest (260°)6.9 mph20.7 mphClear
2:35 PM62.6 °F19.4 °F19 %30.15 in10.0 miCalmClear
2:55 PM64.4 °F19.4 °F18 %30.16 in10.0 miWSW (250°)10.4 mph19.6 mphClear
3:15 PM62.6 °F19.4 °F19 %30.16 in10.0 miWSW (250°)16.1 mph19.6 mphClear
3:35 PM62.6 °F17.6 °F18 %30.17 in10.0 miWSW (250°)12.7 mph16.1 mphClear
3:55 PM64.4 °F17.6 °F16 %30.17 in10.0 miWSW (250°)10.4 mphClear
4:15 PM62.6 °F17.6 °F18 %30.17 in10.0 miWest (280°)6.9 mph18.4 mphClear
4:35 PM62.6 °F17.6 °F18 %30.17 in10.0 miWest (260°)9.2 mphClear
4:55 PM62.6 °F17.6 °F18 %30.16 in10.0 miWNW (300°)4.6 mphClear
5:15 PM62.6 °F17.6 °F18 %30.17 in10.0 miWest (270°)4.6 mphClear
5:35 PM62.6 °F17.6 °F18 %30.17 in10.0 miWest (280°)4.6 mphClear
5:55 PM60.8 °F17.6 °F19 %30.18 in10.0 miCalmClear
6:15 PM60.8 °F19.4 °F20 %30.18 in10.0 miCalmClear
6:35 PM55.4 °F21.2 °F26 %30.20 in10.0 miCalmClear
6:55 PM53.6 °F21.2 °F28 %30.20 in10.0 miCalmClear
7:15 PM53.6 °F21.2 °F28 %30.21 in10.0 miEast (100°)3.5 mphClear
7:35 PM50.0 °F21.2 °F32 %30.22 in10.0 miESE (120°)3.5 mphClear
7:55 PM51.8 °F21.2 °F30 %30.23 in10.0 miESE (120°)3.5 mphClear
8:15 PM46.4 °F21.2 °F37 %30.22 in10.0 miEast (90°)4.6 mphClear
8:35 PM46.4 °F21.2 °F37 %30.23 in10.0 miEast (80°)3.5 mphClear
8:55 PM46.4 °F21.2 °F37 %30.23 in10.0 miEast (90°)3.5 mphClear
9:15 PM44.6 °F21.2 °F39 %30.24 in10.0 miESE (120°)4.6 mphClear
9:35 PM44.6 °F21.2 °F39 %30.25 in10.0 miESE (120°)5.8 mphClear
9:55 PM42.8 °F19.4 °F39 %30.25 in10.0 miESE (120°)4.6 mphClear
10:15 PM44.6 °F19.4 °F37 %30.25 in10.0 miEast (90°)5.8 mphClear
10:35 PM44.6 °F19.4 °F37 %30.26 in10.0 miESE (110°)5.8 mphClear
10:55 PM44.6 °F19.4 °F37 %30.26 in10.0 miESE (110°)3.5 mphClear
11:15 PM44.6 °F19.4 °F37 %30.26 in10.0 miESE (110°)4.6 mphClear
11:35 PM44.6 °F19.4 °F37 %30.26 in10.0 miESE (120°)4.6 mphClear
11:55 PM44.6 °F19.4 °F37 %30.26 in10.0 miESE (120°)5.8 mphClear
Hourly data recorded from KBPG, located miles away from South Haven, Texas







STORIES FROM OUR PARTNERS